SLT1725 UUDD-UZFF

Flight info

Callsign SLT1725
Flight time N/A
Altitude 31000
Route TOGMO4Q TOGMO M56 IDESU/K0830F330 M56 BEKAS L163 INKUM L139 TULGA Q523 EKLER EKLER2Y
Aircraft B739/M-SDE2E3FGHIRWXY/LB1

Departure

Time 2026-05-01 12:08
Airport Domodedovo International Airport (UUDD)

Arrival

Time N/A
Airport Fergana International Airport (UZFF)
Time Latitude Longitude Altitude Speed Heading
2026-05-01 11:16 55.41507 37.90638 576 ft 0 kts 37°
2026-05-01 11:52 55.41507 37.90637 576 ft 1 kts 37°
2026-05-01 11:52 55.41488 37.90611 578 ft 4 kts 49°
2026-05-01 11:53 55.41476 37.90574 575 ft 4 kts 98°
2026-05-01 11:53 55.41479 37.90558 575 ft 3 kts 123°
2026-05-01 11:53 55.41462 37.90594 575 ft 3 kts 130°
2026-05-01 11:53 55.41450 37.90624 575 ft 4 kts 125°
2026-05-01 11:54 55.41439 37.90650 579 ft 4 kts 127°
2026-05-01 11:54 55.41427 37.90677 578 ft 2 kts 127°
2026-05-01 11:54 55.41427 37.90678 575 ft 1 kts 127°
2026-05-01 11:56 55.41426 37.90680 575 ft 1 kts 127°
2026-05-01 11:57 55.41405 37.90730 577 ft 9 kts 127°
2026-05-01 11:57 55.41362 37.90829 576 ft 11 kts 127°
2026-05-01 11:57 55.41300 37.90921 571 ft 12 kts 164°
2026-05-01 11:57 55.41235 37.90841 570 ft 12 kts 240°
2026-05-01 11:58 55.41185 37.90720 572 ft 13 kts 235°
2026-05-01 11:58 55.41136 37.90592 564 ft 12 kts 236°
2026-05-01 11:58 55.41085 37.90462 564 ft 0 kts 236°
2026-05-01 11:59 55.41083 37.90456 564 ft 3 kts 235°
2026-05-01 11:59 55.41060 37.90397 564 ft 8 kts 235°
2026-05-01 11:59 55.41038 37.90302 564 ft 9 kts 268°
2026-05-01 12:00 55.41000 37.90115 571 ft 8 kts 237°
2026-05-01 12:00 55.40966 37.90026 567 ft 9 kts 236°
2026-05-01 12:00 55.40898 37.89851 573 ft 8 kts 235°
2026-05-01 12:01 55.40864 37.89765 568 ft 9 kts 236°
2026-05-01 12:01 55.40820 37.89654 568 ft 11 kts 232°
2026-05-01 12:01 55.40757 37.89576 568 ft 11 kts 221°
2026-05-01 12:01 55.40713 37.89468 572 ft 11 kts 235°
2026-05-01 12:02 55.40665 37.89371 571 ft 10 kts 209°
2026-05-01 12:02 55.40598 37.89393 566 ft 10 kts 144°
2026-05-01 12:02 55.40539 37.89464 569 ft 10 kts 146°
2026-05-01 12:02 55.40482 37.89533 566 ft 10 kts 145°
2026-05-01 12:03 55.40426 37.89601 568 ft 10 kts 145°
2026-05-01 12:03 55.40365 37.89674 563 ft 11 kts 146°
2026-05-01 12:03 55.40303 37.89748 560 ft 11 kts 146°
2026-05-01 12:03 55.40244 37.89820 567 ft 10 kts 146°
2026-05-01 12:04 55.40183 37.89892 556 ft 11 kts 146°
2026-05-01 12:04 55.40116 37.89973 559 ft 12 kts 146°
2026-05-01 12:04 55.40050 37.90052 560 ft 11 kts 146°
2026-05-01 12:04 55.39985 37.90128 553 ft 11 kts 146°
2026-05-01 12:05 55.39923 37.90203 550 ft 11 kts 145°
2026-05-01 12:05 55.39805 37.90347 553 ft 10 kts 146°
2026-05-01 12:05 55.39748 37.90414 546 ft 10 kts 144°
2026-05-01 12:06 55.39693 37.90482 545 ft 10 kts 145°
2026-05-01 12:06 55.39636 37.90539 550 ft 9 kts 166°
2026-05-01 12:06 55.39589 37.90499 543 ft 0 kts 232°
2026-05-01 12:06 55.39587 37.90496 543 ft 3 kts 232°
2026-05-01 12:07 55.39562 37.90431 548 ft 8 kts 239°
2026-05-01 12:07 55.39548 37.90331 542 ft 9 kts 277°
2026-05-01 12:07 55.39580 37.90255 542 ft 0 kts 326°
2026-05-01 12:07 55.39606 37.90224 543 ft 24 kts 326°
2026-05-01 12:08 55.39959 37.89799 557 ft 97 kts 326°
2026-05-01 12:08 55.40689 37.88921 572 ft 155 kts 326°
2026-05-01 12:08 55.41681 37.87784 910 ft 174 kts 328°
2026-05-01 12:08 55.42723 37.86520 1434 ft 194 kts 320°
2026-05-01 12:09 55.43748 37.84860 2043 ft 202 kts 313°
2026-05-01 12:09 55.44693 37.83008 2657 ft 210 kts 309°
2026-05-01 12:09 55.45579 37.80888 3097 ft 220 kts 302°
2026-05-01 12:09 55.46373 37.78513 3511 ft 233 kts 296°
2026-05-01 12:10 55.46737 37.75711 4074 ft 239 kts 261°
2026-05-01 12:10 55.44900 37.70960 5488 ft 242 kts 231°
2026-05-01 12:10 55.43838 37.68642 6158 ft 245 kts 226°
2026-05-01 12:11 55.40666 37.67597 7332 ft 255 kts 154°
2026-05-01 12:11 55.39092 37.69114 7933 ft 261 kts 147°
2026-05-01 12:11 55.37602 37.70962 8583 ft 264 kts 144°
2026-05-01 12:12 55.36108 37.72858 9228 ft 266 kts 144°
2026-05-01 12:12 55.34586 37.74745 9865 ft 269 kts 145°
2026-05-01 12:12 55.33033 37.76653 10395 ft 278 kts 144°
2026-05-01 12:12 55.31410 37.78644 10804 ft 289 kts 145°
2026-05-01 12:13 55.29742 37.80672 11398 ft 293 kts 145°
2026-05-01 12:13 55.28056 37.82714 12048 ft 296 kts 145°
2026-05-01 12:13 55.26203 37.84299 12640 ft 300 kts 164°
2026-05-01 12:13 55.24168 37.85178 13244 ft 303 kts 166°
2026-05-01 12:14 55.22103 37.86025 13812 ft 306 kts 166°
2026-05-01 12:14 55.20019 37.86897 14409 ft 309 kts 165°
2026-05-01 12:14 55.17919 37.87802 14986 ft 312 kts 165°
2026-05-01 12:14 55.15802 37.88732 15527 ft 316 kts 165°
2026-05-01 12:15 55.13659 37.89679 16098 ft 319 kts 164°
2026-05-01 12:15 55.11501 37.90633 16639 ft 321 kts 165°
2026-05-01 12:15 55.09268 37.91022 17125 ft 327 kts 186°
2026-05-01 12:15 55.07036 37.90465 17646 ft 330 kts 187°
2026-05-01 12:16 55.04752 37.89901 18157 ft 334 kts 187°
2026-05-01 12:16 55.02433 37.89533 18637 ft 336 kts 173°
2026-05-01 12:16 55.00218 37.90647 19095 ft 333 kts 147°
2026-05-01 12:16 54.98405 37.93202 19227 ft 342 kts 125°
2026-05-01 12:17 54.97024 37.96637 19492 ft 350 kts 121°
2026-05-01 12:17 54.95680 38.00214 19921 ft 355 kts 120°
2026-05-01 12:17 54.94325 38.03818 20452 ft 357 kts 121°
2026-05-01 12:17 54.92950 38.07423 20978 ft 359 kts 121°
2026-05-01 12:18 54.91555 38.11034 21458 ft 361 kts 122°
2026-05-01 12:18 54.90146 38.14673 21927 ft 364 kts 120°
2026-05-01 12:18 54.88980 38.18564 22374 ft 364 kts 109°
2026-05-01 12:18 54.88094 38.22681 22850 ft 365 kts 107°
2026-05-01 12:19 54.87236 38.26849 23290 ft 368 kts 108°
2026-05-01 12:19 54.86332 38.31026 23732 ft 370 kts 109°
2026-05-01 12:19 54.85394 38.35202 24159 ft 373 kts 109°
2026-05-01 12:19 54.84339 38.39334 24570 ft 377 kts 115°
2026-05-01 12:20 54.83051 38.43322 24977 ft 381 kts 118°
2026-05-01 12:20 54.81694 38.47288 25371 ft 383 kts 118°
2026-05-01 12:20 54.80343 38.51288 25755 ft 386 kts 117°
2026-05-01 12:20 54.79007 38.55347 26116 ft 389 kts 117°
2026-05-01 12:21 54.77675 38.59440 26487 ft 391 kts 117°
2026-05-01 12:21 54.76175 38.63394 26830 ft 398 kts 131°
2026-05-01 12:21 54.73973 38.66398 26938 ft 411 kts 147°
2026-05-01 12:21 54.71478 38.68935 27027 ft 421 kts 148°
2026-05-01 12:22 54.68910 38.71493 27093 ft 431 kts 148°
2026-05-01 12:22 54.66293 38.74142 27161 ft 440 kts 147°
2026-05-01 12:22 54.63640 38.76874 27303 ft 447 kts 147°
2026-05-01 12:22 54.60970 38.79645 27614 ft 449 kts 147°
2026-05-01 12:23 54.58295 38.82420 27975 ft 449 kts 147°
2026-05-01 12:23 54.55611 38.85196 28312 ft 450 kts 147°
2026-05-01 12:23 54.52923 38.87971 28701 ft 450 kts 147°
2026-05-01 12:23 54.50239 38.90740 29108 ft 449 kts 147°
2026-05-01 12:24 54.47563 38.93497 29498 ft 448 kts 147°
2026-05-01 12:24 54.44887 38.96251 29831 ft 449 kts 147°
2026-05-01 12:24 54.42206 38.99003 30152 ft 449 kts 147°
2026-05-01 12:24 54.39683 39.02107 30415 ft 446 kts 132°
2026-05-01 12:25 54.37829 39.06308 30691 ft 441 kts 115°
2026-05-01 12:25 54.35537 39.15985 31210 ft 440 kts 109°
2026-05-01 12:26 54.33284 39.25703 31206 ft 442 kts 110°
2026-05-01 12:26 54.29762 39.40207 31205 ft 437 kts 111°
2026-05-01 12:27 54.26256 39.54569 31215 ft 435 kts 111°
2026-05-01 12:28 54.22748 39.68887 31214 ft 436 kts 111°
2026-05-01 12:29 54.19205 39.83246 31217 ft 439 kts 112°
2026-05-01 12:29 54.15623 39.97685 31211 ft 442 kts 112°
2026-05-01 12:30 54.12004 40.12187 31204 ft 444 kts 111°
2026-05-01 12:31 54.10069 40.22158 31206 ft 443 kts 105°
2026-05-01 12:31 54.08389 40.32248 31199 ft 442 kts 105°
2026-05-01 12:32 54.06680 40.42302 31202 ft 442 kts 105°
2026-05-01 12:32 54.04045 40.57318 31192 ft 441 kts 105°
2026-05-01 12:33 54.02272 40.67295 31195 ft 440 kts 106°
2026-05-01 12:33 54.00495 40.77254 31192 ft 440 kts 106°
2026-05-01 12:34 53.98715 40.87180 31190 ft 439 kts 107°
2026-05-01 12:34 53.96940 40.97043 31192 ft 439 kts 107°
2026-05-01 12:35 53.95158 41.06973 31194 ft 440 kts 105°
2026-05-01 12:35 53.93526 41.16986 31196 ft 441 kts 105°
2026-05-01 12:36 53.91908 41.27047 31197 ft 443 kts 105°
2026-05-01 12:36 53.90259 41.37137 31200 ft 445 kts 105°
2026-05-01 12:37 53.88585 41.47252 31195 ft 446 kts 105°
2026-05-01 12:37 53.86899 41.57390 31194 ft 447 kts 105°
2026-05-01 12:38 53.85207 41.67513 31194 ft 447 kts 105°
2026-05-01 12:38 53.83503 41.77630 31181 ft 446 kts 106°
2026-05-01 12:39 53.81773 41.87697 31182 ft 445 kts 106°
2026-05-01 12:39 53.80038 41.97717 31184 ft 443 kts 106°
2026-05-01 12:40 53.78303 42.07704 31174 ft 442 kts 106°
2026-05-01 12:40 53.76568 42.17649 31173 ft 441 kts 106°
2026-05-01 12:41 53.74842 42.27496 31175 ft 439 kts 106°
2026-05-01 12:41 53.73098 42.37389 31176 ft 439 kts 107°
2026-05-01 12:42 53.71630 42.45673 31159 ft 440 kts 107°
2026-05-01 12:42 53.69867 42.55579 31152 ft 441 kts 107°
2026-05-01 12:43 53.68101 42.65455 31144 ft 443 kts 107°
2026-05-01 12:43 53.66405 42.75476 31136 ft 445 kts 105°
2026-05-01 12:44 53.64845 42.85587 31143 ft 446 kts 105°
2026-05-01 12:45 53.61674 43.05885 31145 ft 449 kts 105°
2026-05-01 12:45 53.60049 43.16050 31138 ft 450 kts 105°
2026-05-01 12:46 53.58408 43.26232 31132 ft 451 kts 106°
2026-05-01 12:46 53.56758 43.36418 31126 ft 451 kts 106°
2026-05-01 12:47 53.55105 43.46579 31124 ft 450 kts 106°
2026-05-01 12:47 53.53443 43.56723 31128 ft 449 kts 106°
2026-05-01 12:48 53.51780 43.66826 31127 ft 448 kts 106°
2026-05-01 12:48 53.50114 43.76895 31121 ft 447 kts 106°
2026-05-01 12:49 53.48440 43.86942 31120 ft 446 kts 106°
2026-05-01 12:49 53.46754 43.96952 31120 ft 445 kts 107°
2026-05-01 12:50 53.45070 44.06881 31120 ft 445 kts 107°
2026-05-01 12:50 53.43367 44.16875 31120 ft 445 kts 107°
2026-05-01 12:51 53.41662 44.26850 31120 ft 445 kts 107°
2026-05-01 12:52 53.39082 44.41836 31117 ft 447 kts 107°
2026-05-01 12:52 53.36472 44.56871 31113 ft 450 kts 107°
2026-05-01 12:53 53.33851 44.71982 31112 ft 452 kts 107°
2026-05-01 12:54 53.32092 44.82083 31110 ft 453 kts 108°
2026-05-01 12:54 53.29432 44.97253 31109 ft 454 kts 108°
2026-05-01 12:55 53.26620 45.12374 31113 ft 454 kts 111°
2026-05-01 12:56 53.24434 45.22272 31111 ft 454 kts 112°
2026-05-01 12:56 53.22230 45.32155 31113 ft 455 kts 112°
2026-05-01 12:57 53.20050 45.42060 31110 ft 455 kts 112°
2026-05-01 12:57 53.16782 45.56911 31112 ft 455 kts 112°
2026-05-01 12:58 53.14608 45.66736 31107 ft 455 kts 112°
2026-05-01 12:59 53.11313 45.81540 31112 ft 454 kts 112°
2026-05-01 12:59 53.08026 45.96319 31111 ft 454 kts 112°
2026-05-01 13:00 53.04738 46.11092 31108 ft 454 kts 112°
2026-05-01 13:01 53.01426 46.25857 31106 ft 455 kts 112°
2026-05-01 13:02 52.98092 46.40637 31101 ft 456 kts 113°
2026-05-01 13:07 52.73564 47.49621 31103 ft 462 kts 112°
2026-05-01 13:08 52.71412 47.59624 31097 ft 463 kts 112°
2026-05-01 13:08 52.69245 47.69615 31105 ft 463 kts 112°
2026-05-01 13:09 52.67065 47.79622 31102 ft 464 kts 112°
2026-05-01 13:09 52.64879 47.89628 31100 ft 465 kts 112°
2026-05-01 13:10 52.62684 47.99640 31106 ft 465 kts 112°
2026-05-01 13:10 52.60474 48.09656 31096 ft 466 kts 113°
2026-05-01 13:11 52.58244 48.19661 31099 ft 466 kts 113°
2026-05-01 13:11 52.55998 48.29674 31108 ft 467 kts 113°
2026-05-01 13:12 52.53745 48.39681 31097 ft 467 kts 113°
2026-05-01 13:12 52.51483 48.49693 31095 ft 468 kts 113°
2026-05-01 13:13 52.49215 48.59689 31088 ft 468 kts 113°
2026-05-01 13:13 52.46937 48.69681 31073 ft 467 kts 114°
2026-05-01 13:14 52.44652 48.79655 31061 ft 467 kts 114°
2026-05-01 13:14 52.42365 48.89589 31068 ft 466 kts 114°
2026-05-01 13:15 52.40074 48.99499 31065 ft 465 kts 114°
2026-05-01 13:15 52.37781 49.09381 31050 ft 464 kts 114°
2026-05-01 13:16 52.35478 49.19247 31052 ft 464 kts 114°
2026-05-01 13:16 52.33187 49.29033 31054 ft 464 kts 114°
2026-05-01 13:17 52.28536 49.48776 31050 ft 464 kts 114°
2026-05-01 13:18 52.25034 49.63445 31062 ft 465 kts 114°
2026-05-01 13:18 52.22674 49.73289 31051 ft 467 kts 114°
2026-05-01 13:19 52.20304 49.83153 31051 ft 468 kts 114°
2026-05-01 13:20 52.16715 49.97972 31051 ft 470 kts 115°
2026-05-01 13:20 52.14305 50.07885 31061 ft 471 kts 115°
2026-05-01 13:21 52.10663 50.22772 31047 ft 472 kts 115°
2026-05-01 13:21 52.08223 50.32690 31049 ft 473 kts 115°
2026-05-01 13:22 52.05774 50.42607 31045 ft 472 kts 115°
2026-05-01 13:22 52.03320 50.52489 31042 ft 471 kts 115°
2026-05-01 13:23 52.00866 50.62332 31044 ft 469 kts 115°
2026-05-01 13:23 51.98433 50.72051 31042 ft 467 kts 115°
2026-05-01 13:24 51.95986 50.81796 31041 ft 466 kts 115°
2026-05-01 13:25 51.92253 50.96340 31086 ft 470 kts 116°
2026-05-01 13:25 51.89651 51.06197 31296 ft 480 kts 116°
2026-05-01 13:25 51.88337 51.11174 31572 ft 481 kts 116°
2026-05-01 13:26 51.87027 51.16142 31961 ft 479 kts 116°
2026-05-01 13:26 51.85724 51.21076 32370 ft 476 kts 116°
2026-05-01 13:26 51.84431 51.25979 32753 ft 473 kts 116°
2026-05-01 13:26 51.83141 51.30854 33054 ft 471 kts 116°
2026-05-01 13:27 51.81846 51.35732 33027 ft 474 kts 116°
2026-05-01 13:27 51.77943 51.50347 33040 ft 470 kts 116°
2026-05-01 13:28 51.74059 51.64841 33051 ft 468 kts 116°
2026-05-01 13:29 51.68867 51.84067 33046 ft 467 kts 116°
2026-05-01 13:30 51.61693 52.01231 33050 ft 462 kts 132°
2026-05-01 13:31 51.58344 52.07939 33050 ft 464 kts 132°
2026-05-01 13:32 51.48298 52.28307 33045 ft 466 kts 131°
2026-05-01 13:33 51.38215 52.48698 33038 ft 467 kts 132°
2026-05-01 13:34 51.30120 52.64944 33038 ft 466 kts 132°
2026-05-01 13:35 51.24049 52.77060 33035 ft 465 kts 132°
2026-05-01 13:36 51.17983 52.89109 33039 ft 464 kts 133°
2026-05-01 13:36 51.11919 53.01103 33035 ft 463 kts 133°
2026-05-01 13:37 51.07873 53.09072 33040 ft 463 kts 133°
2026-05-01 13:37 51.03819 53.17030 33040 ft 463 kts 133°
2026-05-01 13:38 50.97726 53.28949 33034 ft 464 kts 133°
2026-05-01 13:39 50.93648 53.36894 33025 ft 464 kts 133°
2026-05-01 13:39 50.89563 53.44830 33027 ft 465 kts 133°
2026-05-01 13:40 50.85469 53.52759 33026 ft 465 kts 133°
2026-05-01 13:40 50.81363 53.60687 33025 ft 466 kts 133°
2026-05-01 13:41 50.77253 53.68598 33024 ft 466 kts 133°
2026-05-01 13:41 50.73137 53.76498 33029 ft 466 kts 133°
2026-05-01 13:42 50.69017 53.84380 33028 ft 465 kts 133°
2026-05-01 13:42 50.64921 53.92192 33029 ft 465 kts 133°
2026-05-01 13:43 50.60795 54.00041 33026 ft 465 kts 134°
2026-05-01 13:43 50.56664 54.07873 33027 ft 465 kts 134°
2026-05-01 13:44 50.52528 54.15687 33026 ft 465 kts 134°
2026-05-01 13:44 50.48391 54.23483 33029 ft 465 kts 134°
2026-05-01 13:45 50.44251 54.31266 33035 ft 464 kts 134°
2026-05-01 13:45 50.40109 54.39028 33042 ft 464 kts 134°
2026-05-01 13:46 50.35964 54.46775 33051 ft 464 kts 134°
2026-05-01 13:46 50.31810 54.54516 33047 ft 464 kts 134°
2026-05-01 13:47 50.27695 54.62316 33051 ft 465 kts 133°
2026-05-01 13:47 50.23653 54.70221 33060 ft 466 kts 132°
2026-05-01 13:48 50.19641 54.78072 33052 ft 466 kts 132°
2026-05-01 13:48 50.15590 54.85945 33058 ft 465 kts 133°
2026-05-01 13:49 50.11524 54.93800 33055 ft 465 kts 133°
2026-05-01 13:49 50.07455 55.01632 33057 ft 465 kts 133°
2026-05-01 13:50 50.03384 55.09440 33055 ft 464 kts 133°
2026-05-01 13:50 49.99315 55.17233 33049 ft 464 kts 133°
2026-05-01 13:51 49.95244 55.24999 33044 ft 464 kts 133°
2026-05-01 13:51 49.91168 55.32749 33046 ft 463 kts 133°
2026-05-01 13:52 49.87089 55.40484 33048 ft 463 kts 133°
2026-05-01 13:52 49.83008 55.48204 33041 ft 463 kts 133°
2026-05-01 13:53 49.78922 55.55910 33047 ft 463 kts 133°
2026-05-01 13:53 49.72785 55.67438 33048 ft 463 kts 133°
2026-05-01 13:54 49.68691 55.75102 33049 ft 462 kts 134°
2026-05-01 13:54 49.64616 55.82705 33046 ft 463 kts 134°
2026-05-01 13:55 49.60505 55.90357 33040 ft 463 kts 134°
2026-05-01 13:55 49.56394 55.97987 33052 ft 463 kts 134°
2026-05-01 13:56 49.52276 56.05609 33055 ft 463 kts 134°
2026-05-01 13:56 49.48157 56.13207 33055 ft 462 kts 134°
2026-05-01 13:57 49.44705 56.19560 33052 ft 462 kts 134°
2026-05-01 13:57 49.39913 56.28351 33057 ft 462 kts 134°
2026-05-01 13:58 49.35788 56.35897 33054 ft 461 kts 134°
2026-05-01 13:58 49.31659 56.43426 33054 ft 461 kts 134°
2026-05-01 13:59 49.27529 56.50940 33060 ft 461 kts 134°
2026-05-01 13:59 49.23394 56.58437 33052 ft 461 kts 134°
2026-05-01 14:00 49.19259 56.65913 33055 ft 460 kts 134°
2026-05-01 14:00 49.15125 56.73366 33053 ft 459 kts 134°
2026-05-01 14:01 49.10993 56.80798 33057 ft 459 kts 134°
2026-05-01 14:01 49.06857 56.88215 33054 ft 459 kts 134°
2026-05-01 14:02 49.02717 56.95619 33056 ft 459 kts 134°
2026-05-01 14:02 48.98575 57.03001 33053 ft 458 kts 134°
2026-05-01 14:03 48.94427 57.10375 33056 ft 458 kts 134°
2026-05-01 14:03 48.90300 57.17696 33055 ft 459 kts 134°
2026-05-01 14:04 48.86142 57.25049 33060 ft 459 kts 134°
2026-05-01 14:04 48.82649 57.31212 33046 ft 460 kts 134°
2026-05-01 14:05 48.77800 57.39749 33049 ft 460 kts 134°
2026-05-01 14:05 48.73620 57.47083 33037 ft 459 kts 134°
2026-05-01 14:06 48.69439 57.54392 33048 ft 458 kts 134°
2026-05-01 14:06 48.65259 57.61685 33047 ft 459 kts 134°
2026-05-01 14:07 48.61075 57.68966 33048 ft 459 kts 134°
2026-05-01 14:08 48.54797 57.79855 33048 ft 458 kts 135°
2026-05-01 14:08 48.50610 57.87097 33041 ft 458 kts 135°
2026-05-01 14:09 48.46421 57.94321 33048 ft 457 kts 135°
2026-05-01 14:09 48.42234 58.01525 33047 ft 457 kts 135°
2026-05-01 14:10 48.38044 58.08711 33050 ft 457 kts 135°
2026-05-01 14:10 48.33849 58.15887 33047 ft 457 kts 135°
2026-05-01 14:11 48.29651 58.23047 33046 ft 457 kts 135°
2026-05-01 14:11 48.23345 58.33770 33047 ft 457 kts 135°
2026-05-01 14:12 48.19133 58.40904 33047 ft 457 kts 135°
2026-05-01 14:12 48.14915 58.48035 33043 ft 457 kts 135°
2026-05-01 14:13 48.11409 58.53948 33049 ft 457 kts 135°
2026-05-01 14:13 48.06474 58.62244 33049 ft 457 kts 135°
2026-05-01 14:14 48.02251 58.69322 33053 ft 456 kts 135°
2026-05-01 14:14 47.98056 58.76335 33055 ft 455 kts 135°
2026-05-01 14:15 47.93832 58.83380 33058 ft 455 kts 135°
2026-05-01 14:15 47.89611 58.90404 33053 ft 455 kts 135°
2026-05-01 14:16 47.85384 58.97415 33056 ft 454 kts 135°
2026-05-01 14:16 47.81157 59.04410 33054 ft 454 kts 135°
2026-05-01 14:17 47.76936 59.11380 33055 ft 453 kts 135°
2026-05-01 14:17 47.72714 59.18332 33054 ft 452 kts 135°
2026-05-01 14:18 47.69179 59.24131 33056 ft 452 kts 135°
2026-05-01 14:18 47.64977 59.30997 33056 ft 452 kts 135°
2026-05-01 14:19 47.60749 59.37893 33055 ft 452 kts 135°
2026-05-01 14:19 47.56519 59.44774 33054 ft 452 kts 135°
2026-05-01 14:20 47.50175 59.55075 33055 ft 451 kts 135°
2026-05-01 14:21 47.45940 59.61925 33056 ft 452 kts 136°
2026-05-01 14:21 47.41698 59.68772 33055 ft 452 kts 136°
2026-05-01 14:22 47.35319 59.79033 33056 ft 452 kts 136°
2026-05-01 14:22 47.31061 59.85858 33041 ft 453 kts 136°
2026-05-01 14:23 47.26793 59.92685 33034 ft 453 kts 136°
2026-05-01 14:23 47.22529 59.99486 33034 ft 452 kts 136°
2026-05-01 14:24 47.18268 60.06268 33042 ft 451 kts 136°
2026-05-01 14:24 47.14013 60.13023 33041 ft 450 kts 136°
2026-05-01 14:25 47.09764 60.19749 33046 ft 449 kts 136°
2026-05-01 14:25 47.05550 60.26404 33043 ft 448 kts 136°
2026-05-01 14:26 46.99165 60.36452 33047 ft 447 kts 136°
2026-05-01 14:27 46.94956 60.43057 33042 ft 446 kts 136°
2026-05-01 14:27 46.90724 60.49683 33047 ft 446 kts 136°
2026-05-01 14:28 46.84363 60.59606 33058 ft 446 kts 136°
2026-05-01 14:28 46.80115 60.66208 33054 ft 446 kts 136°
2026-05-01 14:29 46.75862 60.72814 33041 ft 447 kts 136°
2026-05-01 14:30 46.67340 60.85995 33049 ft 446 kts 136°
2026-05-01 14:31 46.60942 60.95842 33047 ft 446 kts 136°
2026-05-01 14:31 46.56673 61.02391 33048 ft 446 kts 136°
2026-05-01 14:32 46.52410 61.08919 33047 ft 445 kts 136°
2026-05-01 14:32 46.48146 61.15436 33041 ft 445 kts 136°
2026-05-01 14:33 46.43882 61.21933 33046 ft 444 kts 137°
2026-05-01 14:33 46.39622 61.28407 33048 ft 443 kts 137°
2026-05-01 14:34 46.35366 61.34861 33046 ft 443 kts 137°
2026-05-01 14:34 46.31112 61.41298 33044 ft 442 kts 137°
2026-05-01 14:35 46.26863 61.47710 33048 ft 441 kts 137°
2026-05-01 14:35 46.22614 61.54110 33047 ft 440 kts 137°
2026-05-01 14:36 46.18377 61.60481 33046 ft 440 kts 137°
2026-05-01 14:36 46.14135 61.66836 33054 ft 439 kts 137°
2026-05-01 14:37 46.09891 61.73160 33054 ft 439 kts 137°
2026-05-01 14:37 46.05649 61.79467 33056 ft 438 kts 137°
2026-05-01 14:38 46.01405 61.85768 33055 ft 438 kts 137°
2026-05-01 14:38 45.97163 61.92054 33056 ft 438 kts 137°
2026-05-01 14:39 45.92945 61.98291 33055 ft 438 kts 137°
2026-05-01 14:39 45.88696 62.04563 33051 ft 438 kts 137°
2026-05-01 14:40 45.84466 62.10861 33052 ft 440 kts 133°
2026-05-01 14:40 45.81258 62.18369 33058 ft 446 kts 117°
2026-05-01 14:41 45.78807 62.26548 33051 ft 447 kts 116°
2026-05-01 14:41 45.76373 62.34742 33054 ft 447 kts 116°
2026-05-01 14:42 45.73901 62.42907 33057 ft 447 kts 116°
2026-05-01 14:42 45.71404 62.51058 33056 ft 447 kts 117°
2026-05-01 14:43 45.68896 62.59190 33055 ft 447 kts 117°
2026-05-01 14:43 45.66382 62.67316 33055 ft 447 kts 117°
2026-05-01 14:44 45.63862 62.75433 33043 ft 446 kts 117°
2026-05-01 14:44 45.60078 62.87583 33043 ft 446 kts 117°
2026-05-01 14:45 45.56281 62.99714 33039 ft 446 kts 117°
2026-05-01 14:46 45.53744 63.07787 33047 ft 446 kts 117°
2026-05-01 14:46 45.49932 63.19882 33047 ft 446 kts 117°
2026-05-01 14:47 45.47385 63.27930 33046 ft 446 kts 118°
2026-05-01 14:48 45.43554 63.39986 33048 ft 446 kts 118°
2026-05-01 14:48 45.39723 63.51984 33047 ft 446 kts 118°
2026-05-01 14:49 45.34571 63.68033 33047 ft 446 kts 118°
2026-05-01 14:50 45.29398 63.84045 33047 ft 446 kts 118°
2026-05-01 14:51 45.25503 63.96050 33048 ft 446 kts 118°
2026-05-01 14:52 45.21594 64.08028 33047 ft 446 kts 118°
2026-05-01 14:53 45.17675 64.19981 33040 ft 446 kts 118°
2026-05-01 14:53 45.15056 64.27941 33046 ft 446 kts 118°
2026-05-01 14:54 45.12422 64.35925 33061 ft 451 kts 118°
2026-05-01 14:54 45.09732 64.44045 33056 ft 460 kts 118°
2026-05-01 14:55 45.06989 64.52311 33054 ft 467 kts 118°
2026-05-01 14:55 45.04205 64.60685 33055 ft 473 kts 118°
2026-05-01 14:56 45.01413 64.69047 33041 ft 474 kts 118°
2026-05-01 14:56 44.98588 64.77453 33043 ft 474 kts 118°
2026-05-01 14:57 44.95759 64.85858 33048 ft 474 kts 118°
2026-05-01 14:57 44.91510 64.98436 33049 ft 473 kts 119°
2026-05-01 14:58 44.88484 65.06654 33045 ft 471 kts 121°
2026-05-01 14:58 44.85372 65.14772 33048 ft 471 kts 121°
2026-05-01 14:59 44.82281 65.22911 33047 ft 471 kts 121°
2026-05-01 14:59 44.79210 65.31046 33045 ft 470 kts 121°
2026-05-01 15:00 44.74603 65.43232 33047 ft 470 kts 121°
2026-05-01 15:01 44.71519 65.51351 33047 ft 471 kts 121°
2026-05-01 15:01 44.68348 65.59392 33042 ft 469 kts 124°
2026-05-01 15:02 44.64868 65.67044 33046 ft 467 kts 126°
2026-05-01 15:02 44.61300 65.74676 33049 ft 467 kts 126°
2026-05-01 15:03 44.57765 65.82325 33047 ft 467 kts 126°
2026-05-01 15:03 44.54251 65.89985 33038 ft 467 kts 126°
2026-05-01 15:04 44.50735 65.97642 33048 ft 467 kts 126°
2026-05-01 15:04 44.47213 66.05287 33040 ft 467 kts 126°
2026-05-01 15:05 44.43689 66.12918 33044 ft 467 kts 126°
2026-05-01 15:05 44.40157 66.20540 33049 ft 467 kts 126°
2026-05-01 15:06 44.36622 66.28150 33048 ft 467 kts 126°
2026-05-01 15:06 44.33681 66.34473 33047 ft 467 kts 126°
2026-05-01 15:07 44.30137 66.42069 33048 ft 467 kts 126°
2026-05-01 15:07 44.26499 66.49563 33046 ft 466 kts 128°
2026-05-01 15:08 44.22759 66.56946 33038 ft 466 kts 128°
2026-05-01 15:08 44.19020 66.64333 33039 ft 466 kts 128°
2026-05-01 15:09 44.15292 66.71729 33036 ft 467 kts 128°
2026-05-01 15:09 44.11565 66.79130 33034 ft 467 kts 128°
2026-05-01 15:10 44.07837 66.86516 33041 ft 466 kts 128°
2026-05-01 15:10 44.02235 66.97569 33047 ft 465 kts 128°
2026-05-01 15:11 43.96664 67.08522 33037 ft 464 kts 128°
2026-05-01 15:12 43.92938 67.15826 33036 ft 463 kts 128°
2026-05-01 15:12 43.87350 67.26741 33028 ft 463 kts 128°
2026-05-01 15:14 43.78016 67.44898 33020 ft 463 kts 128°
2026-05-01 15:14 43.72404 67.55763 33017 ft 462 kts 128°
2026-05-01 15:15 43.64919 67.70220 33014 ft 463 kts 128°
2026-05-01 15:16 43.57416 67.84660 33004 ft 463 kts 128°
2026-05-01 15:18 43.48018 68.02601 32999 ft 463 kts 128°
2026-05-01 15:19 43.40446 68.16970 33000 ft 464 kts 128°
2026-05-01 15:19 43.34760 68.27724 33002 ft 464 kts 128°
2026-05-01 15:20 43.28881 68.38261 32980 ft 461 kts 138°
2026-05-01 15:21 43.24102 68.44103 32991 ft 460 kts 141°
2026-05-01 15:21 43.19280 68.49878 32979 ft 460 kts 141°
2026-05-01 15:22 43.12090 68.58618 32991 ft 461 kts 140°
2026-05-01 15:22 43.07306 68.64458 32987 ft 461 kts 140°
2026-05-01 15:23 43.02510 68.70296 32997 ft 461 kts 140°
2026-05-01 15:23 42.97715 68.76122 32994 ft 461 kts 140°
2026-05-01 15:24 42.92915 68.81943 32993 ft 462 kts 141°
2026-05-01 15:24 42.88112 68.87756 33001 ft 462 kts 140°
2026-05-01 15:25 42.83332 68.93611 33001 ft 462 kts 140°
2026-05-01 15:25 42.78557 68.99461 33001 ft 462 kts 140°
2026-05-01 15:26 42.73693 69.05172 33000 ft 461 kts 143°
2026-05-01 15:26 42.68686 69.10526 32999 ft 461 kts 144°
2026-05-01 15:27 42.63629 69.15891 33003 ft 461 kts 144°
2026-05-01 15:28 42.56070 69.23998 32999 ft 462 kts 143°
2026-05-01 15:28 42.51039 69.29399 32998 ft 461 kts 143°
2026-05-01 15:29 42.43489 69.37485 32996 ft 462 kts 143°
2026-05-01 15:30 42.34137 69.49350 33005 ft 465 kts 128°
2026-05-01 15:31 42.22452 69.70309 33002 ft 466 kts 129°
2026-05-01 15:32 42.14529 69.84032 33000 ft 464 kts 133°
2026-05-01 15:34 42.01307 70.03080 33002 ft 464 kts 135°